Regional Weather Roundup
Issued by NWS Charleston, WV

Home | Current Version | Previous Version | Graphics & Text | Print | Product List | Glossary On
Versions: 1 2 3 4 5 6 7 8 9 10 11 12 13 14 15 16 17 18 19 20 21 22 23 24 25 26 27 28 29 30 31 32 33 34 35 36 37 38 39 40 41 42 43 44 45 46 47 48 49 50
000
ASUS41 KRLX 272010
RWRRLX
West Virginia Regional Weather Roundup
National Weather Service Charleston WV
300 PM EST THU NOV 27 2014

Note: "fair" indicates few or no clouds below 12,000 feet with no
significant weather and/or obstructions to visibility.

WVZ003-272100-
Northern Panhandle of West Virginia

CITY           SKY/WX    TMP DP  RH WIND       PRES   REMARKS
WHEELING       CLOUDY    32  27  81 W10       30.11R
$$

WVZ009-272100-
Northwest West Virginia

CITY           SKY/WX    TMP DP  RH WIND       PRES   REMARKS
PARKERSBURG    LGT SNOW  33  26  75 W10       30.20R
$$

WVZ006-272100-
Western West Virginia

CITY           SKY/WX    TMP DP  RH WIND       PRES   REMARKS
HUNTINGTON     FLURRIES  32  23  69 W7        30.24R
$$

WVZ015-272100-
West Central West Virginia

CITY           SKY/WX    TMP DP  RH WIND       PRES   REMARKS
CHARLESTON     FLURRIES  34  23  64 W10G18    30.20R
$$

WVZ022-031-272100-
North Central West Virginia

CITY           SKY/WX    TMP DP  RH WIND       PRES   REMARKS
CLARKSBURG     CLOUDY    34  27  75 W9        30.11R
MORGANTOWN     CLOUDY    35  23  61 VRB6      30.09R
$$

WVZ025-035-042-045-272100-
Southern West Virginia

CITY           SKY/WX    TMP DP  RH WIND       PRES   REMARKS
BECKLEY        MIX PCPN  29  22  75 W15G22    30.11R
LOGAN          CLOUDY    32  25  74 W6G12     30.18S
BLUEFIELD      CLOUDY    30  23  75 W13G22    30.10R
LEWISBURG      CLOUDY    32  25  74 W7        30.09S
$$

WVZ047-272100-
Northern Mountains of West Virginia

CITY           SKY/WX    TMP DP  RH WIND       PRES   REMARKS
ELKINS         LGT SNOW  30  25  81 SW6       30.08S
$$

WVZ052-272100-
Eastern Panhandle of West Virginia

CITY           SKY/WX    TMP DP  RH WIND       PRES   REMARKS
MARTINSBURG    CLOUDY    41  25  53 W15       30.05S
PETERSBURG     CLOUDY    37  28  67 NW13G23   30.09R
$$


USA.gov is the U.S. government's official web portal to all federal, state and local government web resources and services.